Aracde Fitness online results

Treadmill Aracde Running Logo

Results

Here are last Arcade Fitness workouts and online results.

See overall rankings

Day Pseudo Level Device Time Firstname Name Rank Jumping Score Fitness Level Score Cat. Share
1 2021-08-10 jaimesim Track100 No Sensor 0:0:27.1 s 1/1 6 D - Active
2 2021-08-09 MrTwo Trail1000 MoonRun 0:3:39.3 s 1/2 12 B - Competitive
3 2021-08-09 MrOne Trail1000 MoonRun 0:5:18.3 s 2/2 8 C - Sportive
4 2021-08-09 MrOne Trail1000 MoonRun 0:6:58.6 s 1/1 7 C - Sportive
5 2021-08-09 MrOne Steeple100 MoonRun 0:1:55.4 s 1/1 90 % 2 E - Recovery
6 2021-08-09 MrOne Steeple100 MoonRun 0:0:48 s 1/1 50 % 4 D - Active
7 2021-08-09 MrOne Steeple100 MoonRun 0:0:42 s 1/1 90 % 4 D - Active
8 2021-08-08 MoonRunJon Steeple400 MoonRun 0:3:22.9 s 1/1 13 % 5 D - Active
9 2021-08-05 Jamesal Track100 No Sensor 0:0:26.7 s 1/1 6 D - Active
10 2021-08-05 Jamesal Track100 No Sensor 0:0:32.1 s 1/1 6 D - Active
11 2021-07-29 Qu0ckhanh Track100 BLE Power 0:1:16.1 s 1/1 3 D - Active
12 2021-07-29 Qu0ckhanh Track100 BLE Power 0:1:0.2 s 1/1 3 D - Active
13 2021-07-29 Qu0ckhanh Track100 BLE Power 0:2:24.4 s 1/1 2 E - Recovery
14 2021-07-21 LuisBrz Track100 BLE HR 0:1:41.7 s 1/1 2 E - Recovery
15 2021-07-19 MoonRunJon Steeple5000 MoonRun 0:25:43.8 s 1/2 12 B - Competitive
16 2021-07-19 Greg Steeple5000 MoonRun 0:25:45.3 s Gregory Cordier 2/2 12 B - Competitive
17 2021-07-18 MoonRunJon Steeple400 MoonRun 0:2:40.2 s 1/1 35 % 6 D - Active
18 2021-07-17 MoonRunJon Steeple100 MoonRun 0:0:31.2 s 1/1 70 % 6 D - Active
19 2021-07-17 Greg Track100 MoonRun 0:0:49.8 s Gregory Cordier 1/1 4 D - Active
20 2021-07-14 Spikelet Track100 BLE Power 0:0:27.7 s Kevin Hampson 1/1 6 D - Active
21 2021-07-14 Spikelet Track100 BLE Power 0:0:38.2 s Kevin Hampson 1/1 5 D - Active
22 2021-07-14 Fanfan Castle100 BLE Bike Trainer 0:3:32.5 s Yvan Blancmunier 1/1 2 E - Recovery
23 2021-07-13 Spikelet Track100 BLE Power 0:0:30.1 s Kevin Hampson 1/1 6 D - Active
24 2021-07-13 Spikelet Track100 BLE Power 0:0:23.7 s Kevin Hampson 1/1 7 C - Sportive
25 2021-07-13 Spikelet Track100 BLE Power 0:0:53.4 s Kevin Hampson 1/1 4 D - Active
26 2021-07-12 MrOne Track100 MoonRun 0:0:18.3 s 1/1 9 C - Sportive
27 2021-07-12 MoonRunJon Track100 BLE Speed Sensor 0:2:7.2 s 1/1 2 E - Recovery
28 2021-07-01 ALDERONSWANSON Track100 BLE Power 0:0:20.3 s 1/1 8 C - Sportive
29 2021-06-26 Angelo83 Track100 Treadmill 0:0:28.7 s 1/1 6 D - Active
30 2021-06-08 Endy Track100 BLE Bike Trainer 0:0:36.9 s Andrea Coiana 1/1 5 D - Active
31 2021-06-08 Endy Track100 BLE Bike Trainer 0:0:44.4 s Andrea Coiana 1/1 4 D - Active
32 2021-06-08 3lhannah Track100 No Sensor 0:0:30.3 s 1/1 6 D - Active
33 2021-05-24 Greg Steeple100 MoonRun 0:0:33.6 s Gregory Cordier 1/1 70 % 5 D - Active
34 2021-05-10 MrOne Trail1000 MoonRun 0:3:55 s 1/2 11 B - Competitive
35 2021-05-10 MrOne Trail1000 MoonRun 0:3:9.7 s 1/2 14 B - Competitive
36 2021-05-10 MrTwo Steeple400 MoonRun 0:2:10.2 s 1/2 52 % 7 C - Sportive
37 2021-05-10 MrOne Steeple400 MoonRun 0:2:18.1 s 2/2 16 % 7 C - Sportive
38 2021-05-10 MrOne Trail1000 MoonRun 0:3:42.7 s 1/2 12 B - Competitive
39 2021-05-10 MrTwo Trail1000 MoonRun 0:4:28.2 s 2/2 10 C - Sportive
40 2021-05-10 MrTwo Steeple400 MoonRun 0:2:13.9 s 1/2 48 % 7 C - Sportive
41 2021-05-10 MrOne Steeple400 MoonRun 0:2:25.5 s 2/2 29 % 7 C - Sportive
42 2021-05-01 umnica Track100 ANT+ FE-C Trainer 0:2:1.1 s Marina Bor 1/1 2 E - Recovery
43 2021-04-24 umnica Track100 No Sensor 0:0:32.4 s Marina Bor 1/1 5 D - Active
44 2021-04-24 umnica Track100 No Sensor 0:0:35 s Marina Bor 1/1 5 D - Active
45 2021-04-24 umnica Track100 No Sensor 0:0:34.1 s Marina Bor 1/1 5 D - Active
46 2021-04-20 Barbara Steeple2000 MoonRun 0:10:7.9 s 1/1 10 C - Sportive
47 2021-04-14 Barbara Castle1000 MoonRun 0:5:6.9 s 1/1 9 C - Sportive
48 2021-04-14 Barbara Steeple2000 MoonRun 0:12:48.4 s 1/1 8 C - Sportive
49 2021-04-12 ThomasDragonrider Track10000 BLE Speed Sensor 0:54:48.7 s 1/1 12 B - Competitive
50 2021-04-11 pekenity Track100 No Sensor 0:0:32.6 s 1/1 5 D - Active